This is the latest recevied weather packets stored in our database for station/object WA4IKQ. If no packets are shown the sender has not sent any weather packets the latest 10 day(s).
| Time | Temp. | Humidity | Pressure | Rain* | Wind** | Luminosity | Snow |
|---|---|---|---|---|---|---|---|
| 1778269073 | 35° C | 42% | 1012.1 hPa | 0 mm | 1.34 m/s, 122° | - | - |
| 1778269017 | 35° C | 42% | 1012.1 hPa | 0 mm | 1.34 m/s, 122° | - | - |
| 1778268878 | 35° C | 42% | 1012.1 hPa | 0 mm | 0.89 m/s, 143° | - | - |
| 1778268714 | 35° C | 42% | 1012.1 hPa | 0 mm | 0.89 m/s, 143° | - | - |
| 1778268488 | 35° C | 43% | 1012.1 hPa | 0 mm | 2.24 m/s, 179° | - | - |
| 1778268415 | 35° C | 43% | 1012.1 hPa | 0 mm | 2.24 m/s, 179° | - | - |
| 1778268250 | 35° C | 42% | 1012.3 hPa | 0 mm | 0.45 m/s, 91° | - | - |
| 1778268203 | 35° C | 42% | 1012.3 hPa | 0 mm | 0.45 m/s, 91° | - | - |
| 1778268121 | 35° C | 42% | 1012.3 hPa | 0 mm | 0.45 m/s, 91° | - | - |
| 1778267948 | 35° C | 43% | 1012.5 hPa | 0 mm | 1.34 m/s, 217° | - | - |
| 1778267680 | 34.44° C | 43% | 1012.6 hPa | 0 mm | 0 m/s | - | - |
| 1778267515 | 34.44° C | 43% | 1012.6 hPa | 0 mm | 0 m/s | - | - |
| 1778267295 | 34.44° C | 43% | 1012.6 hPa | 0 mm | 1.34 m/s, 276° | - | - |
| 1778267217 | 34.44° C | 43% | 1012.6 hPa | 0 mm | 1.34 m/s, 276° | - | - |
| 1778267032 | 34.44° C | 43% | 1012.7 hPa | 0 mm | 2.24 m/s, 339° | - | - |
| 1778266916 | 34.44° C | 43% | 1012.7 hPa | 0 mm | 2.24 m/s, 339° | - | - |
| 1778266710 | 33.89° C | 44% | 1012.9 hPa | 0 mm | 2.68 m/s, 165° | - | - |
| 1778266613 | 33.89° C | 44% | 1012.9 hPa | 0 mm | 2.68 m/s, 165° | - | - |
| 1778266423 | 33.89° C | 44% | 1013 hPa | 0 mm | 1.34 m/s, 21° | - | - |
| 1778266313 | 33.89° C | 44% | 1013 hPa | 0 mm | 1.34 m/s, 21° | - | - |
| 1778266092 | 33.89° C | 44% | 1013 hPa | 0 mm | 0 m/s | - | - |
| 1778266013 | 33.89° C | 44% | 1013 hPa | 0 mm | 0 m/s | - | - |
| 1778265889 | 34.44° C | 44% | 1013.1 hPa | 0 mm | 1.34 m/s, 339° | - | - |
| 1778265714 | 34.44° C | 44% | 1013.1 hPa | 0 mm | 1.34 m/s, 339° | - | - |
| 1778265482 | 34.44° C | 44% | 1013.3 hPa | 0 mm | 1.79 m/s, 357° | - | - |
* Rain latest hour (hover to see other rain measurements)
** Current wind speed in m/s (hover to see current wind gust speed)